{"data":{"norad_id":68306,"intl_designator":"2026-057N","name":"STARLINK-36307","alt_names":[],"object_type":"PAYLOAD","status":"ACTIVE","operator":null,"country":"US","launch_date":"2026-03-20","launch_site_code":"AFWTR","launch_vehicle":null,"mission":null,"orbit_class":"UNKNOWN","rcs_meters":null,"size_class":null,"mass_kg":null,"dimensions":null,"purposes":["comms"],"wikipedia_slug":null,"has_3d_model":false,"image_url":null,"decayed_at":null,"tle_current":{"epoch":"2026-05-24T21:14:26.801952Z","epoch_age_seconds":82297,"freshness":"FRESH","line1":"1 68306U 26057N   26144.88503243  .00250528  00000+0  16324-2 0  9992","line2":"2 68306  97.2857 271.1737 0000960  85.6579 274.4796 15.75180864 10281","mean_motion":15.75180864,"eccentricity":9.6e-5,"inclination_deg":97.2857,"raan_deg":271.1737,"arg_perigee_deg":85.6579,"mean_anomaly_deg":274.4796,"bstar":0.0016324,"rev_number":1028,"period_min":91.4180734994,"perigee_km":343.47122479251,"apogee_km":344.76189747625,"semimajor_km":6722.2535611344,"source":"CELESTRAK","updated_at":"2026-05-25T13:38:21.918082Z"}}}